DW5330 Weather Reports


time (UTC)temp
C
wind
direction
speed
KPH
gust
KPH
rain 1hr
cm
rain 24hr
cm
rain mn
cm
humidity
%
barometer
mb
20190425063506 23 138 8.0 9.7 0.00 0.00 0.00 80 1010.2
20190425063006 23 145 4.8 9.7 0.00 0.00 0.00 79 1010.1
20190425062506 23 164 4.8 9.7 0.00 0.00 0.00 79 1010.1
20190425062006 23 147 4.8 9.7 0.00 0.00 0.00 79 1010.0
20190425061506 23 165 3.2 8.0 0.00 0.00 0.00 79 1009.9
20190425060506 23 167 3.2 9.7 0.00 0.00 0.00 78 1010.0
20190425060006 23 162 4.8 9.7 0.00 0.00 0.00 78 1010.0
20190425055006 23 143 4.8 11.3 0.00 0.00 0.00 78 1010.1
20190425053006 23 143 4.8 9.7 0.00 0.00 0.00 74 1010.1
20190425050506 24 182 3.2 11.3 0.00 0.00 0.00 74 1010.1
20190425045506 24 177 8.0 11.3 0.00 0.00 0.00 74 1010.2
20190425045007 24 160 4.8 11.3 0.00 0.00 0.00 74 1010.2
20190425044006 24 162 4.8 11.3 0.00 0.00 0.00 73 1010.2
20190425043506 24 159 3.2 11.3 0.00 0.00 0.00 73 1010.3
20190425043006 24 169 4.8 8.0 0.00 0.00 0.00 73 1010.2
20190425042505 24 135 3.2 9.7 0.00 0.00 0.00 73 1010.3
20190425042006 25 181 4.8 11.3 0.00 0.00 0.00 73 1010.3
20190425041506 25 183 4.8 12.9 0.00 0.00 0.00 72 1010.3
20190425040505 25 182 8.0 14.5 0.00 0.00 0.00 72 1010.3
20190425040005 25 183 6.4 11.3 0.00 0.00 0.00 70 1010.4
20190425035505 25 182 3.2 11.3 0.00 0.00 0.00 70 1010.4
20190425035006 25 171 4.8 11.3 0.00 0.00 0.00 70 1010.4
20190425034506 25 181 6.4 12.9 0.00 0.00 0.00 69 1010.4
20190425034006 25 172 3.2 11.3 0.00 0.00 0.00 69 1010.4
20190425033006 25 171 4.8 9.7 0.00 0.00 0.00 69 1010.5
20190425032506 25 176 6.4 11.3 0.00 0.00 0.00 69 1010.6
20190425032005 25 17 3.2 9.7 0.00 0.00 0.00 68 1010.6
20190425031506 25 158 3.2 9.7 0.00 0.00 0.00 66 1010.6
20190425031006 25 39 3.2 9.7 0.00 0.00 0.00 65 1010.7
20190425030506 25 28 4.8 11.3 0.00 0.00 0.00 65 1010.8
20190425030006 25 21 1.6 9.7 0.00 0.00 0.00 64 1010.9
20190425025505 25 12 3.2 8.0 0.00 0.00 0.00 64 1011.0
20190425025005 26 17 4.8 9.7 0.00 0.00 0.00 64 1011.0
20190425024006 26 198 1.6 8.0 0.00 0.00 0.00 61 1011.2
20190425022505 26 312 3.2 9.7 0.00 0.00 0.00 56 1011.4
20190425022006 27 129 4.8 11.3 0.00 0.00 0.00 54 1011.6
20190425021506 27 179 3.2 8.0 0.00 0.00 0.00 51 1011.6
20190425021005 27 2 1.6 9.7 0.00 0.00 0.00 51 1011.7
20190425020506 27 0 0.0 1.6 0.00 0.00 0.00 51 1011.8
20190425015505 28 359 1.6 4.8 0.00 0.00 0.00 51 1011.9
20190425015006 28 345 1.6 9.7 0.00 0.00 0.00 51 1012.0
20190425014006 28 326 1.6 9.7 0.00 0.00 0.00 51 1012.1
20190425013505 28 357 0.0 8.0 0.00 0.00 0.00 51 1012.2
20190425013005 28 323 0.0 8.0 0.00 0.00 0.00 50 1012.3
20190425012506 28 316 3.2 8.0 0.00 0.00 0.00 50 1012.3
20190425010506 30 1 0.0 4.8 0.00 0.00 0.00 50 1012.4
20190425005006 30 18 1.6 4.8 0.00 0.00 0.00 47 1012.5
20190425004505 31 2 1.6 4.8 0.00 0.00 0.00 46 1012.5
20190425004006 31 87 0.0 4.8 0.00 0.00 0.00 46 1012.6
20190425003005 32 66 1.6 4.8 0.00 0.00 0.00 46 1012.7
20190425002505 32 15 1.6 4.8 0.00 0.00 0.00 46 1012.6
20190425002005 31 340 1.6 8.0 0.00 0.00 0.00 47 1012.7
20190425001005 31 355 0.0 4.8 0.00 0.00 0.00 49 1012.8
20190425000005 30 1 1.6 4.8 0.00 0.00 0.00 50 1012.9
20190424235505 30 7 0.0 4.8 0.00 0.00 0.00 51 1012.9
20190424234006 28 3 1.6 4.8 0.00 0.00 0.00 53 1013.1
20190424233506 28 57 1.6 8.0 0.00 0.00 0.00 53 1013.1
20190424233005 28 1 1.6 8.0 0.00 0.00 0.00 53 1013.2
20190424232505 28 99 0.0 4.8 0.00 0.00 0.00 53 1013.2
20190424232005 28 0 0.0 8.0 0.00 0.00 0.00 54 1013.2
20190424231005 28 0 1.6 4.8 0.00 0.00 0.00 56 1013.2
20190424230505 27 337 1.6 4.8 0.00 0.00 0.00 58 1013.2
20190424230005 26 323 1.6 8.0 0.00 0.00 0.00 59 1013.2
20190424225506 26 356 1.6 8.0 0.00 0.00 0.00 59 1013.2
20190424225005 26 191 1.6 4.8 0.00 0.00 0.00 58 1013.2
20190424224006 27 341 1.6 9.7 0.00 0.00 0.00 58 1013.3
20190424222505 26 349 1.6 4.8 0.00 0.00 0.00 61 1013.4
20190424222006 26 322 1.6 9.7 0.00 0.00 0.00 63 1013.4
20190424221505 25 343 1.6 8.0 0.00 0.00 0.00 64 1013.5
20190424221005 25 329 1.6 8.0 0.00 0.00 0.00 64 1013.5
20190424220505 25 355 1.6 4.8 0.00 0.00 0.00 65 1013.5
20190424220005 25 2 1.6 8.0 0.00 0.00 0.00 67 1013.5
20190424215505 24 355 1.6 8.0 0.00 0.00 0.00 68 1013.5
20190424215005 23 42 1.6 4.8 0.00 0.00 0.00 69 1013.5
20190424214505 23 339 0.0 3.2 0.00 0.00 0.00 70 1013.5
20190424214005 22 1 0.0 8.0 0.00 0.00 0.00 72 1013.5
20190424213505 22 342 0.0 8.0 0.00 0.00 0.00 74 1013.5
20190424213005 22 350 1.6 4.8 0.00 0.00 0.00 75 1013.4
20190424212505 21 348 0.0 4.8 0.00 0.00 0.00 76 1013.5
20190424212005 21 0 0.0 4.8 0.00 0.00 0.00 78 1013.4
20190424211005 20 355 0.0 4.8 0.00 0.00 0.00 80 1013.3
20190424210005 20 355 1.6 8.0 0.00 0.00 0.00 81 1013.2
20190424205505 19 336 1.6 8.0 0.00 0.00 0.00 81 1013.2
20190424205005 19 338 1.6 4.8 0.00 0.00 0.00 81 1013.2
20190424204505 19 331 0.0 3.2 0.00 0.00 0.00 83 1013.2
20190424203006 18 336 1.6 4.8 0.00 0.00 0.00 83 1013.2
20190424202505 19 0 0.0 3.2 0.00 0.00 0.00 83 1013.2
20190424201505 19 358 0.0 3.2 0.00 0.00 0.00 83 1013.2
20190424201005 19 356 0.0 4.8 0.00 0.00 0.00 83 1013.1
20190424200005 19 354 0.0 4.8 0.00 0.00 0.00 83 1013.1
20190424195506 19 348 0.0 4.8 0.00 0.00 0.00 83 1013.1
20190424195006 19 0 0.0 3.2 0.00 0.00 0.00 83 1013.1
20190424194505 19 359 1.6 3.2 0.00 0.00 0.00 83 1013.0
20190424194005 19 251 1.6 4.8 0.00 0.00 0.00 83 1013.0
20190424193506 19 234 1.6 4.8 0.00 0.00 0.00 83 1012.9
20190424193005 19 349 1.6 3.2 0.00 0.00 0.00 83 1012.8
20190424192505 19 345 1.6 4.8 0.00 0.00 0.00 83 1012.8
20190424192006 19 358 0.0 3.2 0.00 0.00 0.00 83 1012.7
20190424191506 19 352 0.0 3.2 0.00 0.00 0.00 83 1012.7
20190424191006 19 0 0.0 3.2 0.00 0.00 0.00 83 1012.7
20190424190506 19 0 0.0 3.2 0.00 0.00 0.00 83 1012.7
20190424190006 19 348 0.0 3.2 0.00 0.00 0.00 83 1012.6
20190424185505 19 0 0.0 0.0 0.00 0.00 0.00 83 1012.7
20190424185006 19 358 0.0 3.2 0.00 0.00 0.00 83 1012.6
20190424184505 19 358 0.0 1.6 0.00 0.00 0.00 83 1012.5
20190424183505 19 0 0.0 0.0 0.00 0.00 0.00 83 1012.6
20190424183006 19 0 0.0 3.2 0.00 0.00 0.00 83 1012.5
20190424182006 19 328 1.6 3.2 0.00 0.00 0.00 83 1012.6
20190424181006 19 323 1.6 3.2 0.00 0.00 0.00 83 1012.4
20190424180505 20 316 0.0 4.8 0.00 0.00 0.00 83 1012.5
20190424175505 20 0 0.0 3.2 0.00 0.00 0.00 83 1012.6
20190424175005 19 3 0.0 4.8 0.00 0.00 0.00 83 1012.6
20190424174505 19 356 0.0 3.2 0.00 0.00 0.00 83 1012.7
20190424174006 19 0 0.0 0.0 0.00 0.00 0.00 83 1012.6
20190424173505 19 0 0.0 3.2 0.00 0.00 0.00 83 1012.6
20190424173006 20 358 0.0 1.6 0.00 0.00 0.00 83 1012.6
20190424172506 19 357 0.0 3.2 0.00 0.00 0.00 83 1012.7
20190424172006 19 357 0.0 4.8 0.00 0.00 0.00 83 1012.6
20190424171005 19 0 0.0 3.2 0.00 0.00 0.00 83 1012.5
20190424170505 19 327 1.6 4.8 0.00 0.00 0.00 83 1012.5
20190424170005 19 318 3.2 8.0 0.00 0.00 0.00 83 1012.6
20190424165505 19 311 4.8 9.7 0.00 0.00 0.00 83 1012.6
20190424165006 19 307 6.4 11.3 0.00 0.00 0.00 83 1012.6
20190424164505 19 310 6.4 9.7 0.00 0.00 0.00 83 1012.6
20190424164005 19 318 4.8 8.0 0.00 0.00 0.00 83 1012.7
20190424163505 20 317 4.8 8.0 0.00 0.00 0.00 83 1012.6
20190424163005 20 310 4.8 8.0 0.00 0.00 0.00 83 1012.6
20190424162505 20 307 3.2 8.0 0.00 0.00 0.00 81 1012.7
20190424162006 20 315 3.2 3.2 0.00 0.00 0.00 80 1012.8
20190424161505 20 3 0.0 3.2 0.00 0.00 0.00 80 1012.8
20190424160505 20 358 0.0 3.2 0.00 0.00 0.00 80 1013.0
20190424160005 20 353 0.0 3.2 0.00 0.00 0.00 80 1013.0
20190424155505 20 0 0.0 1.6 0.00 0.00 0.00 80 1013.1
20190424155005 20 0 0.0 0.0 0.00 0.00 0.00 80 1013.2
20190424154505 20 355 1.6 3.2 0.00 0.00 0.00 80 1013.1
20190424154005 20 325 1.6 4.8 0.00 0.00 0.00 79 1013.2
20190424153506 20 314 3.2 4.8 0.00 0.00 0.00 79 1013.2
20190424152505 20 305 3.2 8.0 0.00 0.00 0.00 79 1013.2
20190424152006 20 312 3.2 8.0 0.00 0.00 0.00 80 1013.3
20190424151506 20 352 1.6 3.2 0.00 0.00 0.00 80 1013.4
20190424151005 20 344 0.0 4.8 0.00 0.00 0.00 80 1013.4
20190424150505 20 0 0.0 3.2 0.00 0.00 0.00 80 1013.5
20190424145505 20 314 3.2 8.0 0.00 0.00 0.00 80 1013.6
20190424145005 20 322 1.6 4.8 0.00 0.00 0.00 81 1013.6
20190424144505 20 326 3.2 4.8 0.00 0.00 0.00 81 1013.6
20190424144006 20 318 3.2 4.8 0.00 0.00 0.00 81 1013.6
20190424142005 20 312 3.2 8.0 0.00 0.00 0.00 80 1013.7
20190424141506 20 314 3.2 8.0 0.00 0.00 0.00 80 1013.8
20190424141005 20 327 3.2 4.8 0.00 0.00 0.00 80 1013.8
20190424140505 20 315 4.8 9.7 0.00 0.00 0.00 80 1013.8
20190424140005 20 309 3.2 4.8 0.00 0.00 0.00 81 1013.9
20190424135504 20 308 3.2 4.8 0.00 0.00 0.00 80 1013.9
20190424135005 20 312 3.2 8.0 0.00 0.00 0.00 80 1014.0
20190424134504 20 306 3.2 8.0 0.00 0.00 0.00 80 1014.1
20190424134004 20 309 4.8 8.0 0.00 0.00 0.00 80 1014.1
20190424133505 20 305 3.2 8.0 0.00 0.00 0.00 80 1014.2
20190424132504 20 306 3.2 9.7 0.00 0.00 0.00 80 1014.4
20190424132005 20 313 4.8 9.7 0.00 0.00 0.00 80 1014.4
20190424131505 20 309 3.2 8.0 0.00 0.00 0.00 80 1014.5
20190424131004 20 315 1.6 8.0 0.00 0.00 0.00 80 1014.5
20190424130504 20 312 3.2 8.0 0.00 0.00 0.00 80 1014.5
20190424130005 20 310 4.8 8.0 0.00 0.00 0.00 79 1014.5
20190424125505 21 314 3.2 8.0 0.00 0.00 0.00 79 1014.5
20190424125006 21 307 4.8 9.7 0.00 0.00 0.00 79 1014.6
20190424124505 21 305 4.8 8.0 0.00 0.00 0.00 79 1014.6
20190424124005 21 311 3.2 4.8 0.00 0.00 0.00 79 1014.6
20190424123505 21 314 3.2 8.0 0.00 0.00 0.00 79 1014.7
20190424123005 21 314 3.2 8.0 0.00 0.00 0.00 79 1014.6
20190424122505 21 306 3.2 8.0 0.00 0.00 0.00 79 1014.8
20190424122005 21 314 4.8 11.3 0.00 0.00 0.00 79 1014.9
20190424121504 21 314 3.2 8.0 0.00 0.00 0.00 79 1014.9
20190424121005 21 316 4.8 9.7 0.00 0.00 0.00 78 1014.9
20190424120504 21 310 3.2 11.3 0.00 0.00 0.00 78 1014.9
20190424120005 21 312 3.2 11.3 0.00 0.00 0.00 78 1015.0
20190424115505 21 320 3.2 8.0 0.00 0.00 0.00 78 1014.9
20190424115006 21 309 3.2 8.0 0.00 0.00 0.00 79 1015.0
20190424114504 21 318 3.2 8.0 0.00 0.00 0.00 78 1015.1
20190424114005 21 315 3.2 4.8 0.00 0.00 0.00 79 1015.0
20190424113504 21 356 1.6 3.2 0.00 0.00 0.00 79 1015.1
20190424112505 21 8 1.6 4.8 0.00 0.00 0.00 78 1015.2
20190424110505 21 318 4.8 9.7 0.00 0.00 0.00 78 1015.2
20190424105505 21 359 4.8 8.0 0.00 0.00 0.00 78 1015.1
20190424105006 21 349 1.6 9.7 0.00 0.00 0.00 78 1015.1
20190424104005 21 322 1.6 9.7 0.00 0.00 0.00 78 1015.1
20190424103504 21 325 4.8 11.3 0.00 0.00 0.00 78 1015.1
20190424103005 21 321 4.8 11.3 0.00 0.00 0.00 78 1015.0
20190424102505 21 318 3.2 9.7 0.00 0.00 0.00 78 1015.0
20190424102005 21 327 4.8 9.7 0.00 0.00 0.00 78 1015.0
20190424101504 21 324 4.8 11.3 0.00 0.00 0.00 78 1015.0
20190424100504 21 314 4.8 8.0 0.00 0.00 0.00 76 1014.9
20190424100004 21 319 3.2 8.0 0.00 0.00 0.00 76 1014.9
20190424095505 21 339 3.2 9.7 0.00 0.00 0.00 76 1014.8
20190424094005 21 334 6.4 11.3 0.00 0.00 0.00 76 1014.9
20190424093505 21 318 4.8 12.9 0.00 0.00 0.00 76 1014.8
20190424093006 22 327 3.2 11.3 0.00 0.00 0.00 75 1014.9
20190424092504 22 318 6.4 9.7 0.00 0.00 0.00 75 1014.8
20190424092005 22 320 4.8 11.3 0.00 0.00 0.00 75 1014.9
20190424091510 22 320 3.2 8.0 0.00 0.00 0.00 75 1014.9
20190424090505 22 317 8.0 12.9 0.00 0.00 0.00 74 1014.9
20190424084005 22 321 1.6 8.0 0.00 0.00 0.00 74 1014.6
20190424083005 22 350 1.6 9.7 0.00 0.00 0.00 74 1014.6
20190424082507 22 310 3.2 9.7 0.00 0.00 0.00 74 1014.6
20190424082008 22 318 1.6 4.8 0.00 0.00 0.00 74 1014.6
20190424081508 22 303 1.6 8.0 0.00 0.00 0.00 74 1014.5
20190424081007 22 328 3.2 11.3 0.00 0.00 0.00 74 1014.3
20190424080007 22 325 3.2 11.3 0.00 0.00 0.00 74 1014.3
20190424075008 22 337 1.6 9.7 0.00 0.00 0.00 74 1014.2
20190424074507 22 347 4.8 11.3 0.00 0.00 0.00 73 1014.2
20190424074007 22 5 3.2 11.3 0.00 0.00 0.00 73 1014.1
20190424073507 22 322 3.2 11.3 0.00 0.00 0.00 73 1014.1
20190424072507 22 326 3.2 9.7 0.00 0.00 0.00 73 1014.0
20190424072007 22 325 3.2 11.3 0.00 0.00 0.00 72 1014.0
20190424071507 22 345 3.2 9.7 0.00 0.00 0.00 73 1014.0
20190424071007 22 342 4.8 11.3 0.00 0.00 0.00 72 1013.9
20190424070508 22 317 3.2 12.9 0.00 0.00 0.00 72 1013.9
20190424070007 22 345 3.2 11.3 0.00 0.00 0.00 72 1013.9
20190424065507 22 2 4.8 11.3 0.00 0.00 0.00 72 1013.9
20190424065007 22 17 4.8 14.5 0.00 0.00 0.00 72 1014.0